Weather History for Anchorage, AK

Change the Weather History Date:

Sunday, March 31, 2013

  Actual Average Record
Temperature  
Mean Temperature 35 °F 31 °F  
Max Temperature 43 °F 38 °F 50 °F (1984)
Min Temperature 26 °F 23 °F -19 °F (1920)
Degree Days  
Heating Degree Days 30    
Month to date heating degree days 1247  
Since 1 July heating degree days 8692  
Cooling Degree Days 0    
Month to date cooling degree days 0  
Year to date cooling degree days 0  
Moisture  
Dew Point 29 °F    
Average Humidity 91    
Maximum Humidity 100    
Minimum Humidity 82    
Precipitation  
Precipitation 0.00 in 0.02 in 0.28 in (1949)
Month to date precipitation 1.38 0.60  
Year to date precipitation 3.83 2.05  
Snow  
Snow 0.00 in 0.20 in 5.90 in (1949)
Month to date snowfall 20.6 9.9  
Since 1 July snowfall 76.7 70.2  
Snow Depth 21.00 in    
Sea Level Pressure  
Sea Level Pressure 30.22 in    
Wind  
Wind Speed 2 mph (NW)    
Max Wind Speed 6 mph    
Max Gust Speed -    
Visibility 5 miles    
Events Fog , Snow    
T = Trace of Precipitation, MM = Missing Value Source: NWS Daily Summary

Daily Weather History Graph

Daily Weather History Graph

Search for Another Location

Airport:

Trip Planner

Search our weather history database for the weather conditions in past years. The results will help you decide how hot, cold, wet, or windy it might be!

Date:

Astronomy

Mar. 31, 2013 Rise Set
Actual Time 7:25 AM AKDT 8:44 PM AKDT
Civil Twilight 6:40 AM AKDT 9:29 PM AKDT
Nautical Twilight 5:44 AM AKDT 10:25 PM AKDT
Astronomical Twilight 4:38 AM AKDT 11:32 PM AKDT
Moon 2:16 AM AKDT (3/31) 9:04 AM AKDT (3/31)
Length of Visible Light 14h 48m
Length of Day
13h 19m
Waning Gibbous, 76% of the Moon is Illuminated
Mar 31
Waning Gibbous
Apr 2
Last Quarter
Apr 10
New
Apr 18
First Quarter
Apr 25
Full

Hourly Weather History & Observations

Time (AKDT) Temp. Windchill Dew Point Humidity Pressure Visibility Wind Dir Wind Speed Gust Speed Precip Events Conditions
12:53 AM 32.0 °F 28.7 °F 30.0 °F 92% 30.24 in 10.0 mi Variable 3.5 mph - N/A   Overcast
1:53 AM 33.1 °F - 30.9 °F 92% 30.24 in 10.0 mi Calm Calm - N/A   Overcast
2:53 AM 33.1 °F - 30.0 °F 89% 30.24 in 10.0 mi Calm Calm - N/A   Overcast
3:53 AM 33.1 °F 28.7 °F 30.0 °F 89% 30.25 in 10.0 mi East 4.6 mph - N/A   Overcast
4:53 AM 33.1 °F - 30.0 °F 89% 30.25 in 8.0 mi Calm Calm - N/A   Mostly Cloudy
5:04 AM 32.0 °F - 30.2 °F 93% 30.24 in 7.0 mi Calm Calm - N/A Fog Shallow Fog
5:53 AM 30.9 °F - 28.0 °F 89% 30.25 in 4.0 mi Calm Calm - N/A   Scattered Clouds
6:30 AM 28.4 °F - 24.8 °F 86% 30.24 in 1.2 mi Calm Calm - N/A   Scattered Clouds
6:33 AM 28.4 °F - 24.8 °F 86% 30.24 in 0.8 mi Calm Calm - N/A   Mostly Cloudy
6:36 AM 26.6 °F - 24.8 °F 93% 30.24 in 0.5 mi Calm Calm - N/A Fog Light Freezing Fog
6:53 AM 28.0 °F - 26.1 °F 92% 30.25 in 0.5 mi Calm Calm - N/A Fog Light Freezing Fog
7:34 AM 30.2 °F - 26.6 °F 86% 30.24 in 0.8 mi Calm Calm - N/A   Mostly Cloudy
7:53 AM 30.0 °F - 28.9 °F 96% 30.25 in 0.5 mi Calm Calm - N/A Fog Light Freezing Fog
8:04 AM 30.2 °F 26.7 °F 28.4 °F 93% 30.23 in 0.2 mi NNW 3.5 mph - N/A Fog Light Freezing Fog
8:53 AM 30.9 °F - 28.9 °F 92% 30.25 in 0.2 mi Calm Calm - N/A Fog Light Freezing Fog
9:28 AM 30.2 °F 26.7 °F 28.4 °F 93% 30.24 in 0.2 mi NNW 3.5 mph - N/A Fog Light Freezing Fog
9:38 AM 30.2 °F - 28.4 °F 93% 30.24 in 0.2 mi Calm Calm - N/A Fog Light Freezing Fog
9:51 AM 30.2 °F - 30.2 °F 100% 30.24 in 0.2 mi Calm Calm - N/A Fog Light Freezing Fog
9:53 AM 32.0 °F - 30.0 °F 92% 30.25 in 0.2 mi Calm Calm - N/A Fog Light Freezing Fog
10:35 AM - - - N/A% 30.24 in 0.2 mi NNW 3.5 mph - N/A Fog Light Freezing Fog
10:44 AM 30.2 °F 26.7 °F 28.4 °F 93% 30.24 in 0.2 mi NNW 3.5 mph - N/A Fog Light Freezing Fog
10:53 AM 30.0 °F 25.2 °F 28.0 °F 92% 30.25 in 0.2 mi NNW 4.6 mph - N/A Fog Light Freezing Fog
11:42 AM 30.2 °F - 30.2 °F 100% 30.24 in 0.2 mi Calm Calm - N/A Fog Light Freezing Fog
11:53 AM 30.9 °F - 30.0 °F 96% 30.25 in 0.5 mi Calm Calm - N/A Fog Light Freezing Fog
11:59 AM 30.2 °F - 30.2 °F 100% 30.24 in 1.0 mi Calm Calm - N/A   Overcast
12:06 PM 30.2 °F - 30.2 °F 100% 30.24 in 3.0 mi Calm Calm - 0.00 in Snow Light Snow
12:20 PM 30.2 °F 26.7 °F 30.2 °F 100% 30.24 in 10.0 mi NNW 3.5 mph - 0.00 in   Mostly Cloudy
12:53 PM 35.1 °F 30.1 °F 30.0 °F 82% 30.24 in 10.0 mi NNW 5.8 mph - 0.00 in   Mostly Cloudy
1:53 PM 36.0 °F 32.1 °F 30.9 °F 82% 30.23 in 10.0 mi NNW 4.6 mph - N/A   Mostly Cloudy
2:53 PM 39.0 °F 35.7 °F 30.9 °F 73% 30.21 in 10.0 mi NW 4.6 mph - N/A   Scattered Clouds
3:53 PM 41.0 °F 38.0 °F 30.9 °F 67% 30.19 in 10.0 mi NW 4.6 mph - N/A   Scattered Clouds
4:53 PM 39.0 °F 36.8 °F 30.9 °F 73% 30.17 in 10.0 mi West 3.5 mph - N/A   Scattered Clouds
5:53 PM 39.9 °F 36.7 °F 30.9 °F 70% 30.16 in 10.0 mi West 4.6 mph - N/A   Scattered Clouds
6:53 PM 39.0 °F 34.8 °F 30.0 °F 70% 30.14 in 10.0 mi WNW 5.8 mph - N/A   Scattered Clouds
7:53 PM 37.0 °F - 30.0 °F 76% 30.14 in 10.0 mi Calm Calm - N/A   Mostly Cloudy
8:53 PM 37.0 °F - 30.0 °F 76% 30.13 in 10.0 mi Calm Calm - N/A   Mostly Cloudy
9:53 PM 35.1 °F - 30.0 °F 82% 30.12 in 10.0 mi Calm Calm - N/A   Mostly Cloudy
10:53 PM 32.0 °F - 28.0 °F 85% 30.11 in 10.0 mi Calm Calm - N/A   Mostly Cloudy
11:53 PM 32.0 °F - 28.0 °F 85% 30.11 in 10.0 mi Calm Calm - N/A   Scattered Clouds